Weather in Nibega

Russia / Tomsk District     58°17′01″N   84°53′06″E
temp.,
°C
wind,
m/s
gust,
m/s
humid.,
%
clouds,
%
prec.,
mm/h
press.,
hPa
HPBL,
m
25 june, sat
sat2501:00+15sw25955 1.8 100197
04:00+14wsw289726 0.1 1001165
07:00+16sw279437 0.1 1001230
10:00+22wsw366671 0.0 1001782
13:00+26sw464818 0.0 10001806
16:00+25sw6858100 0.0 9981368
19:00+22wsw488097 1.0 9981031
22:00+18w399489 0.7 999378
26 june, sun
sun2601:00+15wsw389755 0.7 999211
04:00+13sw2696100 0.0 1000118
07:00+16sw1285100 0.0 99992
10:00+16ese3584100 0.1 997201
13:00+18ese3696100 2.8 996479
16:00+20sse399377 0.3 993474
19:00+23w3687100 4.4 991395
22:00+19w49977 1.9 991322
27 june, mon
mon2701:00+15w4898100 2.1 993429
04:00+14w4996100 0.0 995577
07:00+14sw369399 0.0 996496
10:00+20sw356747 0.0 9961031
13:00+23ssw375596 0.1 9951737
16:00+22wsw246687 1.3 993849
19:00+16s2595100 4.9 992340
22:00+15wsw3109180 0.9 992386
28 june, tue
tue2801:00+11wsw51291100 1.1 994638
04:00+11sw61388100 0.3 9951035
07:00+10sw61193100 1.4 997852
10:00+11sw51189100 0.2 999799
13:00+15wsw71068100 0.4 10011332
16:00+15wsw6107259 0.8 10021195
19:00+14wsw5981100 1.3 10031024
22:00+11ssw38915 0.2 1003245
29 june, wed
wed2901:00+10sw3119527 0.3 1004304
04:00+9ssw3119562 0.0 1003268
07:00+12ssw498355 0.0 1003351
10:00+17sw466578 0.0 10031090
13:00+18ssw355640 0.2 10011480
16:00+20sse365099 0.0 9991365
19:00+19ese485851 0.0 997542
22:00+16ese3107714 0.0 996285